Probability
1 2 3 2 2 4 7 9 7 3 2 2 2 1 0 0 0 0 0 0 0 0 0 0 0 0 0 0 0 0 0 0 0 0 0 0 0 0 0 0 0 0 0
3 4 5 4 3 4 6 6 5 3 2 1 1 1 0 0 0 0 0 0 0 0 0 0 0 0 0 0 0 0 0 0 0 0 0 0 0 0 0 0 0 0 0
6 6 7 6 6 6 6 4 3 3 2 1 0 0 0 0 0 0 0 0 0 0 0 0 0 0 0 0 0 0 0 0 0 0 0 0 0 0 0 0 0 0 0
8 7 7 8 8 7 6 4 3 3 2 1 0 0 0 0 0 0 0 0 0 0 0 0 0 0 0 0 0 0 0 0 0 0 0 0 0 0 0 0 0 0 0
11 9 8 9 9 8 6 4 3 3 2 1 0 0 0 0 0 0 0 0 0 0 0 0 0 0 0 0 0 0 0 0 0 0 0 0 0 0 0 0 0 0 0
13 11 9 9 10 8 7 5 3 2 1 1 0 0 0 0 0 0 0 0 0 0 0 0 0 0 0 0 0 0 0 0 0 0 0 0 0 0 0 0 0 0 0
14 12 11 12 11 8 7 6 4 3 2 2 1 1 0 0 0 0 0 0 0 0 0 0 0 0 0 0 0 0 0 0 0 0 0 0 0 0 0 0 0 0 0
16 13 12 13 12 10 8 6 4 3 3 3 2 2 1 0 0 1 0 0 0 0 0 0 0 0 0 0 0 0 0 0 0 0 0 0 0 0 0 0 0 0 0
18 15 12 12 13 12 8 5 4 3 2 2 2 2 1 0 0 0 0 0 0 0 0 0 0 0 0 0 0 0 0 0 0 0 0 0 0 0 0 0 0 0 0
18 17 13 11 12 12 9 5 4 3 2 1 1 1 1 0 0 0 0 0 0 0 0 0 0 0 0 0 0 0 0 0 0 0 0 0 0 0 0 0 0 0 0
16 15 13 11 11 12 10 7 4 4 2 0 0 0 0 0 0 0 0 0 0 0 0 1 1 1 0 0 0 0 0 0 0 0 0 0 0 0 0 0 0 0 0
14 12 11 10 10 11 11 8 6 4 1 0 0 0 0 0 0 0 0 0 0 0 0 1 2 2 1 0 0 0 0 0 0 0 0 1 1 0 0 0 0 0 0
14 13 13 12 11 10 10 9 6 3 1 0 0 0 0 0 0 0 0 0 0 0 0 1 1 2 2 2 1 1 1 1 0 0 0 1 1 0 0 1 2 1 1
18 18 17 15 12 10 9 7 5 3 1 0 0 0 0 0 0 0 0 0 0 0 0 0 0 1 2 2 1 1 1 2 1 1 1 1 2 1 2 3 4 3 2
19 18 16 13 11 9 7 5 2 1 1 0 0 0 0 0 0 0 0 0 0 0 0 0 1 1 1 2 1 1 2 3 3 2 2 3 4 4 3 3 4 4 3
18 16 13 10 8 7 5 3 2 1 0 0 0 0 0 0 0 0 0 0 0 0 0 0 1 2 2 2 2 3 3 3 3 3 2 4 6 6 4 3 4 4 4
19 18 15 11 7 5 4 3 3 2 1 0 0 0 0 0 0 0 0 0 0 0 0 0 1 1 1 1 2 2 2 2 2 2 1 3 5 5 3 3 4 4 5
20 19 17 13 7 3 3 2 2 2 1 0 0 0 0 0 0 0 0 0 0 0 0 0 0 0 0 0 1 1 1 1 1 1 0 1 3 3 3 4 4 4 4
17 16 14 11 6 3 1 1 1 1 1 0 0 0 0 0 0 0 0 0 0 0 0 0 0 0 0 0 0 0 0 0 0 0 0 0 1 2 3 3 4 4 3
14 13 10 6 3 1 0 0 0 0 0 0 0 0 0 0 0 0 0 0 0 0 0 0 0 0 0 0 0 0 0 0 0 0 0 0 0 1 2 2 2 2 2
11 10 6 2 1 0 0 0 0 0 0 0 0 0 0 0 0 0 0 0 0 0 0 0 0 0 0 0 0 0 0 0 0 0 0 0 0 0 0 1 2 3 2
6 5 3 1 0 0 0 0 0 0 0 0 0 0 0 0 0 0 0 0 0 0 0 0 0 0 0 0 0 0 0 0 0 0 0 0 0 0 0 1 2 3 3
2 1 1 1 0 0 0 0 0 0 0 0 0 0 0 0 0 0 0 0 0 0 0 0 0 0 0 0 0 0 0 0 0 0 0 0 0 0 0 0 1 2 3
2 2 1 1 0 0 0 0 0 0 0 0 0 0 0 0 0 0 0 0 0 0 0 0 0 0 0 0 0 0 0 0 0 0 0 0 0 0 0 0 0 1 2
3 3 2 1 0 0 0 0 0 0 0 0 0 0 0 0 0 0 0 0 0 0 0 0 0 0 0 0 0 0 0 0 0 0 0 0 0 0 0 0 0 1 1
3 3 2 1 0 0 0 0 0 0 0 0 0 0 0 0 0 0 0 0 0 0 0 0 0 0 0 0 0 0 0 0 0 0 0 0 0 0 0 0 0 1 0
Wind_Speed
8 9 15 16 16 17 17 17 17 17 17 16 16 16 15 14 14 13 12 11 10 10 10 10 10 10 10 10 11 11 11 11 12 12 12 13 13 13 14 14 14 12 16
12 12 16 16 17 17 17 17 16 16 16 16 15 15 14 13 13 12 11 11 10 10 10 10 10 10 10 10 11 11 11 11 11 12 12 12 13 13 13 14 13 10 15
15 11 14 16 16 17 16 16 16 16 15 15 14 14 13 12 12 11 11 10 10 9 10 10 10 10 10 10 10 10 10 10 10 11 11 8 9 12 13 13 14 14 14
14 10 12 16 16 17 16 16 16 16 15 14 14 13 12 11 11 10 10 9 9 9 9 9 9 10 10 10 10 10 10 10 10 10 6 6 7 12 12 13 14 14 14
11 9 12 18 17 16 16 15 15 15 14 14 13 12 11 11 10 9 9 8 8 8 8 9 9 9 9 9 8 8 8 9 9 8 5 5 5 11 13 13 13 13 14
10 8 11 18 17 16 15 15 14 14 14 13 12 12 11 10 10 9 8 8 7 7 8 8 8 8 8 8 7 7 7 8 7 5 5 5 5 10 13 13 13 13 13
8 7 9 16 16 16 15 15 14 13 13 12 12 11 10 10 9 9 8 8 7 7 7 7 7 7 7 6 6 5 5 7 5 5 5 5 6 10 12 12 12 12 13
9 7 7 15 16 15 15 14 13 13 12 11 11 10 10 9 9 8 7 7 7 7 6 6 6 5 5 5 4 4 3 4 5 5 6 5 7 9 11 12 12 12 12
8 6 5 6 10 13 14 14 13 12 11 11 10 9 9 8 8 8 7 6 6 6 6 6 5 5 4 3 3 2 3 4 4 3 6 5 8 10 12 12 12 12 12
6 6 5 5 5 5 7 12 12 12 11 10 10 10 9 9 8 8 6 6 6 5 5 5 5 4 4 3 2 2 2 3 2 3 3 5 10 12 12 12 12 12 12
7 5 5 5 5 4 5 8 9 11 10 9 8 9 7 3 3 4 6 7 6 6 5 5 5 4 3 2 2 2 2 1 2 1 2 7 11 13 13 13 13 13 13
9 6 4 5 4 4 5 4 3 3 4 3 2 3 2 2 1 3 3 6 6 6 6 5 4 3 2 0 1 1 1 2 2 2 3 9 12 14 14 14 14 13 13
7 7 5 4 4 4 2 3 2 2 2 2 3 2 2 1 0 0 0 1 2 3 1 1 1 1 1 1 1 1 1 2 1 2 3 8 11 15 16 16 15 14 14
6 6 5 5 4 3 2 2 2 2 2 2 2 3 2 1 1 1 0 0 0 0 1 0 0 1 1 1 2 2 2 2 2 2 3 7 10 14 15 16 16 16 15
7 6 6 5 5 4 3 2 3 2 2 2 2 2 3 2 2 1 1 1 1 1 1 1 0 0 1 1 1 2 3 3 3 3 3 7 8 11 14 16 16 17 17
6 5 5 5 5 4 3 3 3 3 2 2 2 2 3 2 2 1 1 1 0 1 1 1 1 0 0 1 2 2 3 3 3 3 3 5 8 10 13 15 16 16 17
5 4 5 6 5 5 4 4 3 3 3 2 2 2 3 3 2 2 2 1 1 1 2 1 1 1 0 1 2 2 2 3 3 3 4 3 4 8 12 14 14 15 16
4 4 4 5 5 5 3 3 3 3 3 2 2 2 3 3 3 2 2 1 1 2 2 1 1 1 1 1 1 2 2 2 3 3 3 4 4 4 7 12 13 15 16
4 4 5 5 5 5 4 3 3 3 2 2 2 2 2 3 3 3 2 2 2 2 2 1 2 1 1 1 2 2 2 2 3 3 4 4 4 5 5 7 12 13 15
4 4 6 5 5 5 4 3 3 3 2 2 2 2 2 2 3 3 2 2 2 2 2 2 2 1 1 1 2 3 3 3 3 3 3 3 3 5 5 6 5 7 13
4 4 6 6 4 4 3 3 3 2 1 1 1 2 2 3 3 3 3 2 2 2 2 2 1 2 2 1 1 3 3 2 2 2 2 2 3 3 3 4 4 4 5
4 4 5 6 5 4 3 2 2 3 2 2 1 2 2 2 3 3 3 2 2 2 2 2 2 1 1 2 1 1 3 4 3 3 2 1 2 2 2 3 4 5 5
6 6 6 6 5 4 4 4 3 3 3 2 2 1 2 1 2 2 3 3 2 2 2 1 2 2 1 1 1 1 1 1 3 3 3 3 3 2 2 3 3 3 4
6 6 6 5 5 5 5 5 5 4 3 2 1 1 1 2 1 2 3 3 3 2 2 1 2 1 2 0 1 0 1 2 1 3 3 3 4 3 4 3 3 3 3
6 6 6 5 5 4 4 5 5 4 2 2 2 2 2 2 2 2 2 2 2 2 2 2 2 2 1 2 1 0 0 0 1 2 3 4 3 3 3 4 3 3 3
6 6 6 6 4 4 5 5 6 6 5 4 2 2 1 1 1 1 2 2 2 1 2 2 2 2 2 2 1 1 1 1 2 2 3 3 3 3 4 3 3 3 3
Wind_Direction
154 156 154 147 138 132 127 124 122 122 122 124 126 128 129 130 131 130 129 127 123 119 114 110 107 106 104 104 105 106 108 111 113 117 118 118 117 116 114 112 111 112 113
145 153 154 149 142 137 132 128 126 126 126 127 128 129 130 132 133 133 133 130 126 121 117 113 112 110 108 108 109 111 113 115 118 121 122 120 120 119 118 118 117 120 119
143 151 153 150 146 142 137 134 132 131 131 131 131 132 134 135 135 136 135 132 128 124 119 117 116 114 112 111 113 115 117 118 119 120 117 115 122 125 124 125 125 122 122
143 146 152 152 149 145 142 140 138 137 136 136 137 137 138 139 139 138 135 133 131 127 124 122 121 118 115 115 115 117 120 121 119 116 108 121 129 133 131 130 129 128 126
139 142 156 154 152 149 146 145 143 142 142 143 143 144 145 145 144 141 139 138 135 132 129 127 125 123 121 119 117 119 123 127 128 116 110 113 123 139 136 134 133 132 130
137 142 158 155 153 152 151 150 149 149 150 150 150 152 153 152 151 149 149 145 142 138 136 134 131 129 127 125 123 121 129 132 125 124 122 125 133 145 143 140 139 138 135
134 143 157 157 156 157 156 156 156 156 157 158 158 160 161 160 159 159 159 157 154 150 145 141 139 138 134 130 125 118 124 132 126 136 140 141 150 152 150 148 145 143 141
136 141 153 161 160 161 160 160 161 163 165 165 165 167 168 168 168 169 170 171 170 165 160 155 149 149 145 137 128 115 113 128 134 149 154 158 166 162 159 154 151 150 148
136 136 144 158 163 165 164 164 165 168 170 170 171 173 175 176 179 180 183 187 183 180 177 173 167 165 163 153 138 124 118 122 127 151 167 168 177 173 168 163 161 159 157
137 141 146 151 150 155 163 168 169 173 175 175 177 180 184 187 190 193 191 197 196 198 198 196 194 191 185 179 175 168 137 112 127 153 166 180 185 182 177 173 173 170 168
156 152 152 151 145 144 155 174 173 176 179 179 183 188 187 189 196 203 207 208 209 214 219 220 217 211 208 210 214 196 150 119 145 170 180 197 193 190 186 184 184 181 178
169 169 158 152 147 145 165 156 152 159 160 158 153 170 157 156 199 209 228 225 223 223 228 232 233 227 212 242 284 245 147 170 188 214 214 213 203 199 194 191 192 189 187
164 169 163 154 151 153 146 138 134 123 127 141 152 145 132 134 173 206 114 276 259 230 232 252 255 248 202 182 235 242 203 194 211 234 235 225 211 205 202 197 195 195 195
162 172 161 156 157 160 142 148 146 137 142 153 155 150 146 152 165 164 167 187 32 123 167 155 261 262 263 238 223 230 230 217 222 236 252 244 220 212 209 204 201 199 199
170 172 165 159 161 152 145 158 152 150 156 159 153 167 164 161 173 170 166 165 151 130 161 150 155 226 266 273 258 242 243 234 229 230 257 266 241 220 217 212 208 206 204
161 163 160 160 154 150 154 156 148 148 149 152 159 163 156 154 159 150 128 103 94 122 120 106 123 138 18 299 294 286 272 256 236 229 241 263 259 236 226 222 219 217 211
159 157 160 153 143 151 156 162 152 148 148 151 147 145 145 142 138 129 118 100 87 88 89 83 71 64 349 310 307 305 288 269 256 242 244 247 259 252 237 228 223 222 220
146 145 149 142 132 133 137 137 132 131 133 133 133 136 141 139 132 126 116 103 87 76 82 91 72 59 2 335 311 302 294 285 277 265 253 250 250 252 247 237 228 228 227
143 141 127 120 128 131 126 115 114 112 113 121 121 121 131 132 126 121 110 99 90 79 70 75 72 78 14 331 302 290 293 288 284 276 264 257 252 250 248 247 240 237 234
127 139 127 127 133 127 111 98 89 85 84 95 113 122 124 123 124 115 106 99 97 86 67 63 71 59 37 326 315 314 303 297 290 278 276 273 265 257 248 248 246 246 244
129 133 134 138 143 134 123 123 119 115 102 86 98 115 118 124 126 124 121 111 107 101 93 88 88 59 23 0 8 336 327 325 313 299 296 289 293 287 272 257 247 244 251
140 153 151 155 154 149 137 128 126 121 110 96 72 83 99 126 137 142 138 134 125 111 95 85 94 91 22 27 71 34 349 342 341 357 344 343 333 321 315 294 268 252 249
161 170 167 159 149 140 128 113 93 74 61 59 54 51 38 104 142 143 147 141 137 130 136 129 125 130 118 14 51 125 122 294 314 326 343 353 344 334 327 312 300 280 261
178 165 157 149 140 138 136 136 135 135 141 160 136 91 47 60 104 142 145 148 147 144 150 163 135 134 135 138 355 14 181 184 242 315 322 335 341 339 332 321 314 305 288
174 162 153 146 143 143 142 140 132 128 136 124 105 93 66 43 53 102 138 148 154 156 167 168 145 143 151 168 189 197 118 86 202 230 293 318 327 317 316 311 308 311 316
165 157 153 151 152 149 143 141 145 147 147 138 135 128 93 48 33 61 115 134 153 164 181 185 176 171 178 182 190 189 189 198 207 211 253 286 300 300 307 302 301 304 307